www.pogodaiklimat.ru
ПОГОДА в Пало Альто
Время
и дата
06:47 20.05
07:47 20.05
09:47 20.05
10:47 20.05
11:47 20.05
12:47 20.05
13:47 20.05
14:47 20.05
15:47 20.05
16:47 20.05
17:47 20.05
18:47 20.05
19:47 20.05
05:47 21.05
06:47 21.05
07:47 21.05
09:47 21.05
10:47 21.05
11:47 21.05
12:47 21.05
13:47 21.05
14:47 21.05
15:47 21.05
18:47 21.05
19:47 21.05
05:47 22.05
06:47 22.05
07:47 22.05
08:47 22.05
09:47 22.05
10:47 22.05
11:47 22.05
12:47 22.05
14:47 22.05
15:47 22.05
16:47 22.05
17:47 22.05
18:47 22.05
19:47 22.05
06:47 23.05
07:47 23.05
08:47 23.05
09:47 23.05
10:47 23.05
11:47 23.05
12:47 23.05
13:47 23.05
14:47 23.05
Ветер
(напр.,м/с)
Видим. Явления Облачность Т
(С)
Тd
(С)
f
(%)
Тe
(С)
Тes
(С)
Комфортность P
(гПа)
Po
(гПа)
Тmin
(С)
Tmax
(С)
R
(мм)
R24
(мм)
S
(см)
СЗ 2 16 км ясно +14.0 +4.0 51 +12 +13 1010.5
З 2 16 км ясно +16.0 +3.0 42 +15 +17 1010.8
СЗ 2 16 км ясно +19.0 0.0 28 +19 +25 1010.1
СЗ 3 16 км ясно +21.0 +1.0 26 +21 +27 комфорт 1009.8
СЗ 3 16 км ясно +22.0 -1.0 21 +21 +29 комфорт 1009.5
З 3 16 км ясно +22.0 -1.0 21 +21 +29 комфорт 1009.1
СЗ 4 16 км ясно +24.0 -3.0 16 +22 +26 комфорт 1008.8
СЗ 3 16 км ясно +24.0 -3.0 16 +22 +27 комфорт 1008.5
З 4 16 км ясно +24.0 -1.0 19 +23 +25 комфорт 1008.5
СЗ 3 16 км ясно +23.0 -1.0 20 +22 +24 комфорт 1008.5
СЗ 3 16 км ясно +23.0 0.0 22 +22 +24 комфорт 1008.5
СЗ 2 16 км ясно +21.0 +1.0 26 +21 +22 комфорт 1008.8
С 2 16 км ясно +16.0 +10.0 68 +15 +15 1009.5
нст 1 13 км ясно +11.0 +7.0 76 +10 +10 1012.2
штиль 0 16 км ясно +14.0 +7.0 63 +14 +15 1012.5
нст 1 16 км ясно +16.0 +7.0 55 +16 +19 1012.9
С 2 16 км ясно +19.0 +10.0 56 +20 +27 1012.9
С 2 16 км ясно +20.0 +11.0 56 +21 +30 комфорт 1013.2
С 2 16 км ясно +21.0 +11.0 53 +23 +33 комфорт 1013.2
С 3 16 км ясно +23.0 +10.0 44 +25 +33 комфорт 1013.2
СЗ 3 16 км ясно +23.0 +12.0 50 +26 +33 жарко 1013.2
С 2 16 км ясно +23.0 +14.0 57 +26 +35 жарко 1012.9
С 4 16 км ясно +20.0 +13.0 64 +21 +24 комфорт 1012.5
С 4 16 км ясно +16.0 +11.0 72 +14 +15 1013.9
СЗ 1 16 км ясно +14.0 +9.0 72 +13 +13 1015.2
штиль 0 16 км ясно +11.0 +8.0 82 +10 +10 1016.6
нст 1 16 км ясно +13.0 +9.0 77 +12 +12 1017.3
нст 1 16 км ясно +15.0 +9.0 67 +15 +18 1017.3
С 1 16 км ясно +16.0 +11.0 72 +16 +21 1017.3
С 2 16 км ясно +17.0 +11.0 68 +17 +24 1016.9
СЗ 2 16 км ясно +19.0 +11.0 60 +20 +28 1017.3
С 3 16 км ясно +21.0 +12.0 56 +23 +31 комфорт 1016.9
С 3 16 км ясно +22.0 +12.0 53 +24 +32 комфорт 1016.6
С 3 16 км ясно +22.0 +13.0 57 +25 +29 комфорт 1015.2
СЗ 4 16 км ясно +23.0 +8.0 38 +24 +25 комфорт 1014.9
СЗ 3 16 км ясно +22.0 +6.0 35 +23 +25 комфорт 1015.6
С 3 16 км ясно +19.0 +11.0 60 +19 +20 1015.2
С 3 16 км 2/0 6000 м
[Ac]
+17.0 +8.0 55 +16 +16 1015.6
СЗ 2 16 км 2/0 6000 м
[Ac]
+15.0 +9.0 67 +14 +14 1015.9
штиль 0 16 км ясно +14.0 +11.0 82 +14 +15 1015.9
штиль 0 16 км ясно +16.0 +11.0 72 +16 +20 1015.9
СВ 1 16 км ясно +17.0 +12.0 72 +17 +23 1015.6
С 1 16 км ясно +19.0 +11.0 60 +20 +30 1015.2
С 2 16 км ясно +21.0 +8.0 43 +22 +31 комфорт 1014.9
С 3 16 км ясно +22.0 +9.0 43 +23 +31 комфорт 1014.2
СЗ 4 16 км ясно +23.0 +10.0 44 +25 +29 комфорт 1013.5
С 3 16 км ясно +23.0 +12.0 50 +26 +31 жарко 1012.9
С 3 16 км ясно +23.0 +13.0 53 +26 +31 жарко 1012.2
Местоположение метеостанции Palo Alto Airport: широта 37.4700 долгота -122.1200 высота над уровнем моря 2 м.
В архиве по умолчанию представлена погода в Пало Альто за последние 1-2 суток. Обновление информации о фактической погоде в базе происходит ежечасно! Архивные данные за месяц целиком и за предыдущие месяцы Вы можете получить, выбрав интересующий диапазон дат из раскрывающегося списка и нажав кнопку "Ввод!".
Внимание! Архив погоды МЕТАР в базе сайта по станциям, не включенным в климатический монитор, хранится не более 60 дней. Нет смысла пытаться выбрать более раннюю дату.
*Определитесь, кто Вы:
Внимание! Время в таблицах - местное (без учета летнего времени). Для получения всемирного времени необходимо вычесть поправку, которая равна -8 ч.
Смотрите также архив погоды в соседних городах и на ближайших метеорологических станциях:
Партнеры нашего сайта:      
Пояснения к столбцам:
  • Ветер - указаны скорость ветра в м/с - средняя за 10 мин, порывы в срок и между сроками (в фигурных скобках) и направление, откуда дует ветер: С - северный,
  • СВ - северо-восточный, В - восточный, ЮВ - юго-восточный, Ю - южный, ЮЗ - юго-западный, З - западный, СЗ - северо-западный.
  • Видимость - горизонтальная дальность видимости в метрах или километрах. При видимости от 1 до 10 км при отсутствии осадков обычно наблюдается дымка, при ухудшении видимости до 1 км и менее - туман. В сухую погоду видимость может ухудшаться дымом, пылью или мглою.
  • Явления - указаны атмосферные явления, наблюдавшиеся в срок или в последний час перед сроком; фигурными скобками обозначены явления, наблюдавшиеся между сроками (за 1-3 часа до срока); квадратными скобками обозначены град или гололедные отложения с указанием их диаметра в мм.
  • Облачность - указаны через наклонную черту общая и нижняя облачность в баллах и высота нижней границы облаков в метрах; квадратными скобками обозначены формы облаков: Ci - перистые, Cs - перисто-слоистые, Cc - перисто-кучевые, Ac - высококучевые, As - высокослоистые, Sc - слоисто-кучевые, Ns - слоисто-дождевые, Cu - кучевые, Cb - кучево-дождевые. Подробнее классификацию облаков см. в Атласе облаков (PDF).
  • T - Температура воздуха - температура, измеренная на высоте 2 м над землей.
  • Td - Температура точки росы - температура, при понижении до которой содержащийся в воздухе водяной пар достигнет насыщения.
  • f - Относительная влажность воздуха - влажноcть воздуха, измеренная на высоте 2 м над землей.
  • Te - Эффективная температура - температура, которую ощущает одетый по сезону человек в тени. Характеристика душности погоды. При расчете учитывается влияние влажности воздуха и скорости ветра на теплоощущения человека.
  • Tes - Эффективная температура на солнце - температура, которую ощущает человек, с поправкой на солнечный нагрев. Характеристика знойности погоды. Зависит от высоты солнца над горизонтом, облачности и скорости ветра. Ночью, в пасмурную погоду, а также при ветре 12 м/с и более поправка равна нулю.
  • P - Атмосферное давление - приведенное к уровню моря атмосферное давление.
  • Po - Атмосферное давление - измеренное на уровне метеостанции атмосферное давление.
  • Tmin - Минимальная температура - минимум температуры воздуха на высоте 2 м над землей.
  • Tmax - Максимальная температура - максимум температуры воздуха на высоте 2 м над землей.
  • R - Количество осадков - Количество выпавших осадков за период времени, мм. При наведении курсора мыши на число - период времени, за который выпало указанное количество осадков.
  • R24 - Количество осадков - Количество выпавших осадков за 24 часа, мм.
  • S - Снежный покров - Высота снежного покрова, см. При наведении курсора мыши на число - состояние снежного покрова и степень покрытия местности в баллах.